Scottsbluff, NE

11:06 AM MDT on April 27, 2017 (GMT -0600)
Heilig

Weather History for KBFF - March, 2013

Change the Weather History Date:

Friday, March 15, 2013

  Actual Average Record
Temperature  
Mean Temperature 58 °F 38 °F  
Max Temperature 76 °F 53 °F 84 °F (2015)
Min Temperature 40 °F 24 °F -11 °F (1912)
Degree Days  
Heating Degree Days 7 27  
Month to date heating degree days 371 434  
Since 1 July heating degree days 4892 5346  
Cooling Degree Days 0 0  
Month to date cooling degree days 0 0  
Year to date cooling degree days 0 0  
Growing Degree Days 8 (Base 50)    
Moisture  
Dew Point 27 °F    
Average Humidity 37    
Maximum Humidity 55    
Minimum Humidity 19    
Precipitation  
Precipitation 0.00 in 0.03 in 0.57 in (1928)
Month to date precipitation 0.13 0.42  
Year to date precipitation 0.67 1.43  
Snow  
Snow 0.00 in 0.30 in 5.00 in (1928)
Month to date snowfall 1.2 3.8  
Since 1 July snowfall 22.2 32.2  
Snow Depth 0.00 in    
Sea Level Pressure  
Sea Level Pressure 29.83 in    
Wind  
Wind Speed 11 mph (North)    
Max Wind Speed 33 mph    
Max Gust Speed 40 mph    
Visibility 10 miles    
Events      
T = Trace of Precipitation, MM = Missing Value Source: NWS Daily Summary

Daily Weather History Graph

Daily Weather History Graph

Search for Another Location

Airport or City:

Trip Planner

Search our weather history database for the weather conditions in past years. The results will help you decide how hot, cold, wet, or windy it might be!

Date:

Astronomy

Mar. 15, 2013 Rise Set
Actual Time 7:05 AM MDT 7:01 PM MDT
Civil Twilight 6:37 AM MDT 7:29 PM MDT
Nautical Twilight 6:05 AM MDT 8:01 PM MDT
Astronomical Twilight 5:32 AM MDT 8:34 PM MDT
Moon 8:53 AM MDT (3/15) 11:22 PM MDT (3/15)
Length of Visible Light 12h 51m
Length of Day
11h 55m
Waxing Crescent, 16% of the Moon is Illuminated
Mar 15
Waxing Crescent
Mar 19
First Quarter
Mar 27
Full
Apr 2
Last Quarter
Apr 10
New

Hourly Weather History & Observations

Time (MDT) Temp. Windchill Dew Point Humidity Pressure Visibility Wind Dir Wind Speed Gust Speed Precip Events Conditions
12:53 AM 48.2 °F - 26.6 °F 43% 30.02 in 10.0 mi NNW 3.5 mph - N/A   Clear
1:53 AM 48.9 °F - 28.0 °F 44% 29.92 in 10.0 mi West 3.5 mph - N/A   Clear
2:53 AM 45.0 °F 42.6 °F 28.0 °F 52% 29.91 in 10.0 mi NW 4.6 mph - N/A   Clear
3:53 AM 45.0 °F 43.5 °F 28.0 °F 52% 29.86 in 10.0 mi NNW 3.5 mph - N/A   Clear
4:53 AM 42.1 °F 39.2 °F 26.1 °F 53% 29.86 in 10.0 mi North 4.6 mph - N/A   Clear
5:53 AM 41.0 °F 37.1 °F 26.1 °F 55% 29.86 in 10.0 mi NNW 5.8 mph - N/A   Clear
6:53 AM 42.1 °F 38.4 °F 26.1 °F 53% 29.86 in 10.0 mi NNW 5.8 mph - N/A   Clear
7:53 AM 46.9 °F - 27.0 °F 46% 29.86 in 10.0 mi NNW 4.6 mph - N/A   Clear
8:53 AM 51.1 °F - 28.0 °F 41% 29.86 in 10.0 mi North 4.6 mph - N/A   Clear
9:53 AM 57.9 °F - 28.9 °F 33% 29.85 in 10.0 mi WNW 10.4 mph - N/A   Clear
10:53 AM 66.9 °F - 28.0 °F 23% 29.80 in 10.0 mi West 11.5 mph - N/A   Clear
11:53 AM 72.0 °F - 28.0 °F 20% 29.79 in 10.0 mi WNW 19.6 mph 26.5 mph N/A   Clear
12:53 PM 75.9 °F - 30.0 °F 19% 29.76 in 10.0 mi WNW 24.2 mph 34.5 mph N/A   Clear
1:53 PM 75.0 °F - 30.0 °F 19% 29.75 in 10.0 mi NW 25.3 mph 34.5 mph N/A   Clear
2:50 PM 75.2 °F - 30.2 °F 19% 29.82 in 10.0 mi North 12.7 mph 31.1 mph N/A   Clear
2:53 PM 75.0 °F - 30.9 °F 20% 29.73 in 10.0 mi North 15.0 mph 31.1 mph N/A   Clear
3:53 PM 72.0 °F - 28.0 °F 20% 29.73 in 10.0 mi North 13.8 mph - N/A   Clear
4:53 PM 72.0 °F - 27.0 °F 19% 29.74 in 10.0 mi NW 20.7 mph 27.6 mph N/A   Clear
5:53 PM 70.0 °F - 26.1 °F 19% 29.74 in 10.0 mi NNE 9.2 mph 23.0 mph N/A   Clear
6:53 PM 62.1 °F - 21.0 °F 21% 29.77 in 10.0 mi NE 9.2 mph - N/A   Clear
7:53 PM 59.0 °F - 25.0 °F 27% 29.80 in 10.0 mi ENE 11.5 mph - N/A   Overcast
8:53 PM 57.9 °F - 24.1 °F 27% 29.83 in 10.0 mi ESE 10.4 mph 17.3 mph N/A   Scattered Clouds
9:53 PM 55.0 °F - 26.1 °F 33% 29.83 in 10.0 mi ENE 13.8 mph - N/A   Mostly Cloudy
10:53 PM 53.1 °F - 26.1 °F 35% 29.84 in 10.0 mi NE 13.8 mph - N/A   Overcast
11:53 PM 51.1 °F - 27.0 °F 39% 29.88 in 10.0 mi ESE 10.4 mph - N/A   Mostly Cloudy